Theta_e
285 286 287 287 286 285 285 286 286 286 286 287 288 289 291 291 291 291 292 293 294 295 296 297 298 299 299 300 302 303 304 306 306 307 308 308 308 309 309 310 311 312 312 313 314 314 315 315 315 316 316 317 317 318 319 320 322 324 326 327 329 330 330 331 331 331 331 331 332 333 334 335 336 337 338 338 338 338 338 338 337 336 335 335 335 336
284 285 286 286 285 284 284 285 286 286 286 286 288 289 290 290 289 290 291 292 294 295 296 297 297 298 298 299 301 302 303 304 306 306 307 308 308 309 309 310 311 311 312 313 313 314 314 315 315 316 316 317 317 318 319 320 321 323 324 326 327 328 329 330 330 331 331 331 331 332 333 334 335 336 337 337 337 338 338 337 336 335 334 335 335 335
283 284 285 285 285 284 284 285 285 286 286 287 288 289 289 288 289 289 291 292 293 295 296 296 297 297 297 298 300 301 302 304 305 306 307 307 308 308 309 310 311 311 312 312 313 313 314 315 316 316 317 317 317 318 318 319 320 321 323 324 325 326 327 328 329 329 330 330 331 331 332 333 334 335 335 335 336 336 335 335 334 334 333 334 334 334
282 283 284 284 284 284 284 284 285 286 287 288 288 289 288 288 288 289 290 291 293 294 295 295 296 296 297 297 299 300 302 303 304 305 306 307 308 308 309 310 310 311 312 312 313 313 314 315 316 316 316 317 317 318 318 319 319 319 321 322 323 324 325 325 326 327 328 329 329 330 331 331 332 333 333 333 333 333 333 333 333 333 333 333 334 334
282 283 284 284 284 284 284 285 285 286 287 288 288 288 288 288 288 289 290 291 292 293 294 295 295 296 296 296 297 299 301 302 303 305 306 306 308 308 309 310 311 311 312 312 312 313 314 314 315 316 316 317 317 318 318 318 319 319 319 320 322 323 323 324 324 325 326 327 328 328 329 329 330 331 331 331 331 331 332 333 333 333 333 334 334 334
281 283 284 284 283 283 284 285 285 286 287 287 287 287 287 288 288 289 290 290 291 292 293 294 295 295 295 295 297 298 300 301 303 304 305 306 307 308 309 310 311 311 312 312 312 313 313 314 315 316 316 317 317 317 318 318 319 319 319 319 320 321 322 323 323 324 324 325 326 327 327 328 328 329 330 330 330 330 330 331 332 333 334 334 334 334
281 283 284 284 283 283 284 284 285 285 286 286 286 286 287 287 288 289 289 290 290 291 292 293 294 294 294 295 296 297 299 300 302 303 305 306 307 308 309 310 311 311 312 312 312 313 313 314 315 316 316 317 317 317 317 318 318 318 318 318 319 320 322 322 322 323 323 324 324 325 325 326 326 327 328 328 328 329 329 330 331 333 334 334 334 334
281 282 283 283 283 283 283 284 285 285 286 286 285 285 285 286 287 288 288 289 290 291 292 292 292 292 293 293 294 295 297 298 300 302 304 305 306 308 309 310 311 312 312 312 312 313 313 314 315 316 316 317 317 317 317 317 318 318 317 318 318 319 321 321 322 322 322 322 323 323 324 324 325 325 326 326 327 327 327 328 330 332 333 333 333 334
280 281 282 282 282 282 282 283 284 285 286 285 285 285 284 285 285 286 287 288 289 290 290 290 290 290 291 292 293 294 296 297 299 301 302 304 305 306 308 309 311 312 312 313 313 313 313 314 315 316 317 317 317 317 317 318 318 317 317 317 318 319 320 321 321 321 322 322 322 322 323 323 323 324 324 324 325 325 326 327 328 330 332 332 332 333
280 281 281 282 282 282 281 282 283 285 286 286 285 285 285 284 284 284 284 286 287 288 289 289 288 289 289 291 292 294 296 297 299 300 302 303 304 306 307 309 310 312 313 313 313 313 313 314 315 317 317 317 318 317 318 318 317 317 316 317 317 318 319 320 321 321 321 321 322 322 322 322 323 323 323 323 324 324 324 325 326 327 329 330 331 332
280 281 281 281 281 282 282 282 283 284 285 285 285 285 285 284 283 283 282 284 285 286 287 288 288 288 288 289 291 293 295 295 296 298 300 302 303 305 306 308 311 312 313 313 313 313 313 314 315 316 317 317 318 318 318 317 317 316 316 316 317 318 319 319 320 321 321 321 322 322 322 322 322 322 322 323 323 323 323 323 324 324 326 327 328 330
279 280 280 280 280 281 281 282 283 283 284 283 283 282 283 283 283 283 282 283 284 285 285 286 287 288 288 289 291 292 293 293 294 295 297 299 301 303 305 308 311 313 313 313 313 313 313 314 315 316 317 318 318 318 317 317 316 315 315 315 316 317 318 319 319 320 320 321 321 322 322 322 322 321 321 322 322 322 322 322 322 323 324 325 326 327
279 280 280 280 280 280 280 281 281 281 281 281 281 280 281 282 283 284 283 283 284 284 284 285 286 287 288 290 291 292 291 291 292 293 295 296 299 301 302 305 308 311 313 313 313 314 314 315 316 316 317 318 318 317 316 315 315 314 314 314 315 317 318 318 319 319 319 320 321 321 322 322 321 321 321 321 321 321 321 321 322 322 323 324 325 326
278 279 279 279 279 279 279 280 279 279 280 280 281 281 281 282 283 283 283 283 284 285 285 284 285 286 288 291 292 291 290 290 290 291 292 294 296 298 300 302 304 308 312 313 314 315 315 316 316 317 317 318 318 317 315 314 313 313 313 314 315 316 318 318 318 318 319 319 320 321 321 321 321 321 321 320 320 320 320 321 321 322 323 323 324 325
277 278 277 277 277 278 279 279 279 279 279 280 281 282 282 282 282 282 282 283 283 284 284 283 284 285 287 292 292 291 290 289 288 289 290 292 294 297 298 300 302 305 309 312 314 315 316 316 317 318 318 318 318 318 315 315 314 313 313 313 314 315 316 317 318 318 318 319 319 320 321 321 321 321 320 320 320 320 320 320 320 321 322 323 323 324
277 277 276 276 277 277 278 279 279 279 279 280 281 281 281 281 281 282 282 282 283 283 282 282 282 283 285 290 292 291 289 288 287 287 288 290 292 296 298 299 300 303 307 310 313 315 316 317 318 318 319 317 315 314 314 313 313 313 313 313 314 315 315 316 317 318 318 318 319 319 319 320 320 320 320 320 320 319 319 319 320 321 321 322 323 324
277 277 276 276 276 277 278 278 279 279 279 280 281 281 281 280 281 281 282 282 282 282 281 280 280 280 282 285 288 290 289 287 286 286 286 288 291 294 297 298 299 301 304 308 312 315 316 317 318 318 319 316 314 313 313 313 313 313 313 313 313 314 315 316 317 317 318 318 318 318 319 319 319 320 320 320 319 319 319 319 319 320 321 322 322 323
276 276 276 276 276 277 278 278 278 279 279 280 280 280 281 281 281 281 282 282 281 281 280 280 280 280 280 282 285 287 288 287 286 285 285 287 290 293 296 297 298 300 303 307 311 315 316 317 318 318 318 315 313 313 313 313 313 313 313 313 313 313 314 315 316 317 317 318 318 318 318 318 319 319 319 319 319 319 319 319 319 320 320 321 322 323
276 276 276 276 276 277 277 277 278 278 279 279 279 280 280 280 281 281 282 281 281 280 280 279 280 280 280 281 283 286 287 286 285 285 284 286 288 292 295 297 298 300 303 307 311 314 316 317 317 316 314 313 313 312 312 312 313 313 313 313 313 313 313 314 315 316 317 317 318 318 318 318 318 318 318 318 318 318 318 319 319 319 320 320 321 322
275 276 276 276 276 276 276 277 278 279 279 280 280 280 279 279 280 280 281 281 281 280 280 280 280 280 281 281 283 285 287 286 285 284 284 285 288 291 294 296 298 300 302 307 310 312 313 316 317 316 313 312 312 312 312 312 313 313 313 312 312 312 313 313 314 315 316 316 316 317 317 318 318 318 318 318 318 318 318 318 318 319 319 320 320 321
275 275 276 277 277 276 276 277 278 279 280 280 280 279 279 279 279 279 280 280 280 280 280 279 280 280 281 281 282 284 286 286 284 284 284 285 288 291 295 297 299 300 302 306 309 312 313 315 317 318 315 313 312 312 312 312 312 312 312 312 312 312 312 313 314 315 315 315 316 316 316 317 318 318 318 318 318 318 318 318 318 318 319 319 320 320
276 276 277 278 277 277 277 278 279 280 281 281 280 279 279 278 278 279 280 280 280 279 279 279 280 281 282 282 283 284 286 286 285 284 284 285 287 291 295 297 299 300 301 305 308 311 312 313 315 316 315 313 312 312 312 312 312 312 312 312 312 311 312 312 313 314 314 315 315 315 316 316 317 318 318 318 318 318 318 318 318 319 319 319 320 320
277 277 278 278 278 278 278 278 279 280 282 281 280 280 279 279 279 279 280 280 280 280 280 281 281 282 282 283 284 285 287 287 287 287 285 285 287 290 294 296 298 300 302 304 307 309 310 311 313 315 315 312 311 312 312 312 312 312 312 311 311 311 311 312 312 313 313 314 314 314 315 316 316 317 317 317 317 317 317 318 319 319 319 320 320 320
278 278 278 278 279 279 279 280 280 281 281 281 281 281 281 281 281 282 281 281 281 281 281 281 281 281 282 283 284 286 289 290 290 288 286 286 287 289 293 295 297 298 301 303 305 307 309 310 312 315 316 312 311 311 311 311 312 312 311 311 311 311 310 311 312 312 313 313 313 314 314 315 315 316 316 316 316 316 317 318 319 319 320 320 320 320
279 279 279 279 280 281 281 281 282 282 282 282 281 281 282 282 283 283 282 282 281 281 281 280 279 279 280 282 284 286 290 290 289 287 285 285 286 288 291 294 295 296 297 300 303 305 307 309 312 314 316 314 312 311 311 311 311 311 311 311 311 310 310 311 311 312 312 313 313 313 313 314 315 315 315 316 316 316 316 317 318 319 320 320 320 320
280 280 281 281 282 283 284 284 284 284 283 282 282 282 282 282 281 281 280 280 280 280 279 277 277 278 279 281 283 285 287 288 287 286 284 284 284 286 290 293 293 293 294 297 301 304 306 307 310 313 315 315 313 311 311 311 311 311 311 311 310 310 310 310 311 312 312 312 313 313 313 313 314 314 315 315 315 315 316 316 317 318 319 319 319 319
281 282 282 282 283 283 283 283 283 283 284 283 283 283 282 281 279 278 278 278 278 278 277 276 276 277 278 279 281 282 284 286 286 285 284 283 284 285 289 291 291 291 291 295 299 303 305 306 308 311 315 315 314 312 310 310 310 311 311 310 310 310 310 310 310 311 312 312 312 313 313 313 313 313 314 314 314 315 315 316 316 317 318 318 319 320
281 281 281 282 282 282 282 282 282 282 283 283 284 284 282 280 278 277 276 277 278 277 276 276 276 276 277 278 279 281 283 285 285 284 284 283 284 285 288 289 289 289 290 293 297 302 305 306 308 310 313 315 315 313 310 310 310 310 310 310 310 310 310 310 310 310 311 312 312 312 313 313 313 313 313 313 314 314 314 315 315 316 317 319 321 322
280 280 280 281 281 281 281 281 281 281 282 283 283 283 282 279 278 277 277 278 277 277 276 276 276 276 276 277 278 280 282 284 284 284 284 283 283 285 286 287 288 288 289 291 295 301 305 306 308 309 311 313 313 313 312 310 310 310 310 310 309 309 309 309 310 310 310 311 312 312 312 313 313 313 313 313 313 314 314 314 315 316 318 320 322 323
277 278 278 279 279 279 279 279 279 281 281 282 282 282 281 280 279 278 278 278 277 276 276 276 276 276 276 276 277 279 282 283 284 284 284 282 282 283 285 285 286 287 288 288 292 297 302 305 307 308 310 311 313 314 313 312 312 312 311 310 310 310 309 309 309 310 310 311 311 312 312 312 312 312 312 313 313 313 314 314 316 318 321 322 323 323
276 276 276 277 277 278 278 278 279 279 280 281 281 281 280 280 279 279 279 278 278 277 276 276 276 276 276 276 276 277 280 281 283 285 284 282 282 282 284 284 285 286 287 287 288 291 297 302 305 306 308 310 312 313 314 313 313 313 312 312 312 311 310 309 309 310 310 310 311 311 312 312 312 312 312 312 313 313 314 315 317 319 322 323 323 323
275 276 276 276 277 277 277 278 278 278 279 279 279 280 280 280 280 279 279 279 278 277 277 276 276 276 277 276 276 276 277 280 282 285 284 282 282 282 283 283 284 285 287 287 287 288 292 298 302 304 306 308 310 312 314 314 314 314 313 312 312 312 310 310 310 310 310 310 310 311 311 311 311 311 312 312 313 313 314 315 317 319 323 323 322 322
276 276 276 276 276 276 277 277 277 277 278 278 278 279 279 279 279 280 279 279 279 278 277 277 276 276 276 276 276 277 278 280 282 284 285 283 282 282 282 282 283 284 285 287 288 289 291 296 300 302 304 305 306 308 310 312 313 314 313 312 312 311 310 311 312 312 312 311 311 311 310 310 311 311 311 312 312 313 314 315 317 319 321 322 322 321
275 276 276 276 276 276 276 276 276 277 277 277 278 278 278 279 279 279 280 280 279 279 278 278 277 277 276 276 276 277 278 280 282 284 285 283 282 281 281 282 282 283 284 285 286 288 290 293 297 300 301 303 304 305 306 309 312 315 314 313 312 311 311 312 312 312 312 312 312 312 312 312 311 311 311 312 312 313 314 315 316 316 318 320 321 321
275 275 275 275 275 275 275 275 276 276 276 277 277 278 278 278 279 279 279 280 280 279 279 279 278 278 277 276 276 276 277 279 282 284 284 283 282 281 281 281 282 282 283 284 284 286 288 290 292 295 299 301 303 304 304 306 310 314 315 313 313 312 312 312 312 312 312 313 313 313 313 313 313 313 313 312 313 313 314 314 315 315 316 317 318 320
274 274 274 275 274 274 275 275 275 275 276 276 277 277 278 278 278 279 279 279 280 280 280 280 280 280 279 278 278 277 278 279 281 283 284 283 282 281 280 281 282 282 282 283 283 284 285 287 289 293 298 301 301 302 303 305 308 313 314 313 313 313 313 313 313 313 313 313 313 313 314 315 315 315 315 313 312 313 313 313 313 314 314 315 316 317
274 274 274 274 274 274 274 274 275 275 275 276 276 277 278 278 279 279 279 280 280 280 280 280 281 281 281 281 280 280 280 281 282 283 283 283 282 281 280 281 282 282 282 282 283 284 284 285 288 292 298 300 301 301 302 305 308 311 312 312 313 313 313 314 314 314 314 313 313 313 314 314 315 314 314 312 312 313 313 313 313 313 313 314 315 315
274 274 274 274 274 274 274 274 274 275 275 276 276 277 278 278 279 279 280 280 280 280 280 280 281 281 282 282 282 282 282 282 282 282 283 283 282 282 281 281 282 283 283 283 283 284 284 284 286 290 296 298 300 301 304 306 308 309 310 311 312 313 313 314 315 314 313 313 313 313 313 314 314 314 314 314 314 315 315 314 314 313 313 313 314 314
273 273 273 274 274 274 274 274 274 275 276 276 277 278 278 279 279 280 280 280 280 281 281 281 281 281 282 282 283 283 283 283 283 283 283 283 283 282 282 282 282 282 283 284 284 284 284 284 285 287 291 294 298 301 304 306 307 308 308 310 310 311 312 313 313 313 313 313 312 312 312 313 313 313 313 313 314 314 314 314 314 314 314 314 314 313
273 273 273 274 274 274 274 275 275 276 277 277 278 279 279 279 279 279 280 280 280 281 281 281 281 282 282 283 283 284 284 284 284 284 284 284 284 283 283 282 282 283 284 284 285 285 285 285 286 287 288 291 295 299 303 305 306 308 308 308 307 306 309 310 312 312 312 312 312 311 311 312 312 311 311 312 313 313 313 313 313 313 314 313 313 312
273 273 274 274 275 275 276 276 276 277 277 278 278 278 278 278 278 278 279 279 280 280 281 281 281 282 282 283 284 284 284 285 285 285 285 285 285 284 284 284 284 284 284 284 285 285 286 286 286 288 289 291 294 298 301 304 306 307 308 307 305 305 307 309 310 310 311 311 310 310 310 310 310 309 310 310 310 311 312 313 313 313 313 313 313 312
274 274 274 274 275 275 275 276 277 277 278 277 277 277 278 278 278 278 278 278 278 279 279 280 280 280 281 282 283 285 286 286 286 287 286 286 286 286 286 286 285 285 285 285 285 286 286 287 288 289 290 292 294 297 301 303 305 307 307 306 305 306 306 307 308 309 309 309 309 309 309 309 308 308 308 308 308 309 310 311 312 312 312 312 312 312
274 274 274 275 275 276 276 277 277 277 277 277 277 277 278 278 278 278 278 277 278 278 279 279 279 280 280 281 282 283 285 286 287 287 287 287 287 287 288 287 287 286 286 285 285 286 287 289 291 292 293 293 295 298 300 301 303 305 305 305 305 305 304 304 306 307 308 308 308 308 308 307 306 305 305 304 305 306 307 308 309 310 311 312 312 312
275 275 275 275 276 276 276 276 276 276 276 276 276 277 277 278 278 278 278 277 278 278 278 279 279 280 280 280 280 281 283 284 286 287 287 287 288 288 289 288 287 286 286 286 286 287 289 290 291 292 293 295 297 298 298 299 300 303 305 305 306 305 304 304 305 306 306 306 306 305 305 303 302 301 301 301 300 301 302 303 305 306 308 309 310 310
275 275 275 275 276 275 275 275 275 275 276 276 276 277 277 278 278 278 278 277 277 278 278 278 279 279 279 279 279 280 281 282 284 285 285 286 288 289 289 289 288 287 287 287 288 288 287 287 288 290 293 296 297 298 297 298 299 301 303 304 305 305 305 305 305 304 303 303 302 302 302 302 301 300 299 298 298 298 299 300 301 303 305 306 307 308
275 275 275 275 275 275 275 275 275 275 275 276 276 276 277 277 278 278 278 277 277 277 278 278 278 278 278 278 279 279 280 281 282 283 284 285 285 287 288 289 290 290 290 289 288 288 287 287 287 289 292 295 295 295 295 296 297 298 300 302 303 303 303 303 303 303 302 301 300 300 301 302 301 300 298 297 296 296 296 297 298 300 301 303 305 305
274 274 274 274 274 274 274 275 275 275 275 275 276 276 277 277 277 277 277 277 277 277 278 278 278 278 278 278 278 278 279 279 280 281 282 283 284 285 286 288 289 290 289 289 288 288 288 288 288 289 291 292 292 292 292 293 294 295 297 299 300 301 300 300 300 300 300 300 300 300 301 301 300 299 297 296 296 295 295 296 297 297 299 300 302 303
274 274 274 274 274 274 274 274 274 274 274 275 275 276 277 277 277 277 277 277 277 277 277 277 277 277 277 278 278 279 279 279 279 280 281 282 283 284 284 286 288 289 290 290 290 289 289 289 289 289 289 289 289 289 290 291 292 292 294 296 297 297 296 296 297 298 299 299 299 300 301 301 300 298 297 296 295 295 294 295 296 296 297 298 300 301
274 274 274 274 274 274 274 274 274 274 274 275 275 275 276 277 277 278 277 277 277 277 276 276 276 276 277 277 278 279 279 279 280 280 281 281 282 283 283 284 286 288 289 290 290 290 290 290 290 290 289 288 288 288 289 290 291 292 292 294 294 295 295 295 295 296 297 297 298 299 300 301 300 299 298 296 295 294 293 294 295 296 297 298 299 300
274 274 274 274 274 274 274 274 274 274 274 275 275 275 275 276 276 277 277 277 277 277 276 276 276 276 276 277 277 278 279 279 279 279 280 281 282 282 283 283 284 286 288 289 290 290 289 289 289 290 291 290 289 288 288 289 290 291 292 292 293 293 294 294 294 295 296 296 296 297 298 299 299 299 298 296 294 293 293 293 294 295 296 297 299 300
274 274 274 274 274 274 274 274 274 275 275 275 275 275 275 275 276 276 276 276 276 276 276 276 276 276 276 277 277 278 278 278 278 279 279 281 281 282 282 283 283 285 286 288 289 289 288 287 287 287 288 290 290 289 288 288 289 290 290 291 292 292 293 293 294 295 295 296 296 296 297 298 298 298 297 296 295 294 293 293 293 294 296 297 298 300
Wind_Speed
8 8 8 10 10 9 8 11 12 11 11 10 10 9 9 10 10 11 13 12 12 12 11 11 10 10 11 14 17 19 20 19 17 16 15 16 17 18 18 17 16 13 11 8 6 5 6 7 9 11 14 16 18 19 19 19 18 15 12 11 12 13 15 17 18 20 21 24 27 31 35 38 39 38 35 32 30 30 29 29 28 28 28 28 28 27
8 8 8 9 10 9 8 11 12 11 11 11 11 10 10 11 10 10 10 11 11 11 11 10 10 10 11 12 15 18 19 19 18 17 16 17 17 18 19 18 16 14 12 9 7 6 6 7 8 11 13 15 17 17 18 18 17 15 12 11 12 13 14 16 18 19 21 22 25 29 33 37 38 38 35 32 30 30 29 29 28 27 28 27 27 27
9 8 7 8 8 9 8 10 11 11 11 11 11 11 12 12 11 9 8 9 9 10 10 10 10 10 11 11 14 17 18 19 19 18 18 18 18 19 19 18 17 15 12 9 7 6 6 7 8 10 12 14 15 16 18 18 17 15 12 11 12 13 14 15 17 19 21 22 23 26 30 33 36 37 34 32 30 29 27 27 27 27 28 28 28 28
8 8 7 7 7 8 8 9 10 10 10 10 11 11 12 11 9 9 8 9 9 9 10 10 10 9 9 10 12 15 18 19 19 19 19 19 20 20 20 19 17 15 12 9 7 6 6 7 9 10 11 12 14 16 17 17 16 14 12 11 11 12 13 14 16 18 21 22 23 24 26 29 32 34 33 32 30 27 26 26 27 28 30 31 31 30
8 8 8 7 6 6 8 8 9 9 9 9 9 10 10 9 9 8 8 9 9 9 9 9 9 9 8 8 11 14 17 18 19 19 19 19 20 21 21 20 17 14 12 9 7 6 6 8 9 10 11 12 14 15 17 17 16 14 11 10 10 12 12 13 15 17 20 22 23 24 24 26 28 30 31 30 29 28 27 28 28 30 32 33 33 33
8 8 7 7 6 6 6 7 8 8 8 8 8 8 8 8 8 8 8 8 8 8 8 7 8 8 8 9 11 14 16 18 18 19 18 19 20 21 21 19 17 14 12 10 8 7 6 8 10 11 11 12 14 16 18 17 16 13 11 10 10 11 12 12 13 15 18 21 23 24 24 25 26 28 28 29 29 30 30 30 31 32 34 34 34 35
8 7 7 6 5 5 5 6 7 7 7 7 7 7 8 8 8 8 8 8 8 8 7 7 7 7 8 9 11 13 14 16 16 17 17 18 18 19 19 18 16 14 12 10 8 7 7 9 10 11 11 12 13 16 18 17 15 12 10 9 10 11 12 12 13 14 16 19 21 23 24 25 26 27 27 28 29 30 31 32 33 35 35 35 35 35
8 7 7 6 5 5 5 6 6 6 7 7 7 7 7 7 7 7 8 8 8 7 7 7 6 7 7 8 10 11 11 12 12 12 13 14 15 16 17 16 15 14 12 10 8 7 7 8 10 11 11 11 13 16 18 17 14 11 9 9 11 12 13 13 13 14 16 17 19 20 22 24 25 26 27 27 28 29 30 31 33 34 35 35 35 35
9 8 7 6 6 6 6 5 5 6 6 7 7 7 8 8 7 7 7 7 7 6 6 6 7 7 7 8 8 9 10 10 9 9 10 10 10 12 15 15 15 13 12 10 8 7 6 8 10 11 10 11 12 15 17 16 13 9 7 9 11 13 13 14 14 14 15 16 17 18 20 21 23 24 25 25 25 26 26 26 28 30 32 32 33 34
9 8 7 6 6 6 6 6 6 5 6 6 6 6 6 7 8 8 8 8 7 6 5 6 7 7 8 8 8 8 9 10 11 12 12 11 12 13 15 15 13 12 10 9 7 6 6 8 9 10 9 9 11 13 15 13 10 7 6 8 11 13 14 14 14 14 15 16 17 17 18 19 20 21 22 22 22 22 22 22 22 24 26 28 30 31
8 7 6 6 5 5 5 5 5 5 6 6 6 6 5 6 7 8 9 9 8 7 6 6 6 7 7 7 8 8 8 8 10 11 11 12 13 15 16 15 12 9 8 7 6 6 6 8 9 9 7 8 9 11 11 9 7 5 5 8 11 13 14 14 14 14 14 15 16 17 17 18 18 19 19 20 20 21 21 21 21 21 23 25 27 28
7 6 5 5 5 5 5 5 5 5 6 6 6 5 5 6 6 7 9 9 9 8 8 7 6 6 6 7 6 6 6 7 8 8 8 9 9 11 12 11 8 6 6 6 5 5 6 7 8 8 6 6 7 8 8 6 4 3 4 7 10 12 14 13 13 13 13 14 16 17 17 17 17 18 18 19 20 21 21 22 22 22 22 23 25 26
6 5 5 5 6 6 5 5 5 5 5 5 6 6 6 6 6 6 7 8 8 8 8 8 7 6 6 5 4 4 5 6 7 7 7 7 6 6 7 8 7 4 3 3 4 4 5 6 6 6 5 5 6 6 6 4 2 3 4 6 8 11 13 13 12 11 11 13 15 16 17 18 18 18 18 19 20 22 22 23 23 23 22 22 23 25
6 6 5 6 6 6 5 6 6 6 5 5 6 6 6 6 7 7 7 7 7 7 7 8 8 7 5 4 3 3 5 6 7 7 7 6 6 6 6 7 7 5 3 2 3 4 5 5 4 4 3 4 5 5 5 3 2 2 3 4 7 9 12 12 11 10 10 11 13 16 17 18 18 18 19 19 21 22 23 23 23 23 23 22 22 23
6 6 6 6 6 6 5 6 6 6 6 6 6 6 6 7 7 8 8 8 7 7 7 8 8 6 4 3 2 3 5 6 7 7 8 7 6 6 6 7 7 6 4 2 2 3 4 4 3 3 2 4 4 4 3 3 1 2 3 4 5 8 11 12 11 10 9 10 12 14 16 17 18 18 18 19 20 21 22 23 23 23 23 22 21 22
6 6 6 6 6 6 5 5 6 6 6 6 6 6 7 7 7 7 8 7 7 6 6 7 7 6 4 3 3 4 5 6 7 7 8 8 7 6 6 7 7 6 5 3 2 2 3 3 3 2 2 3 3 2 2 2 1 3 3 4 5 7 10 12 12 11 11 10 11 12 14 16 17 18 18 18 19 19 20 21 22 23 23 22 22 21
5 5 6 6 6 6 5 5 6 6 6 6 6 6 6 7 7 7 7 7 6 5 5 6 6 6 4 4 3 4 6 6 6 7 8 8 7 6 5 6 7 6 5 5 3 2 3 3 2 2 2 2 2 2 2 1 2 4 4 5 5 7 10 12 13 13 13 12 11 11 12 14 16 17 17 17 18 18 19 20 21 22 22 22 22 22
5 5 6 6 6 6 6 5 5 5 6 6 6 6 6 6 7 7 7 6 6 5 5 5 5 4 5 5 4 5 7 7 7 7 8 8 7 6 5 6 6 6 6 5 4 2 2 2 2 2 2 3 3 3 2 3 4 5 5 5 6 6 8 11 13 15 15 14 13 12 12 13 14 16 17 17 17 17 17 18 19 20 21 21 22 22
5 5 6 6 5 5 6 5 5 6 6 6 6 7 7 7 7 7 7 6 6 6 6 6 5 5 5 5 6 6 6 6 6 7 7 8 8 7 6 6 6 6 5 5 4 2 2 2 2 3 3 4 4 4 3 4 5 6 7 7 6 6 7 10 13 15 15 15 14 13 13 13 14 15 16 16 17 17 17 17 18 18 19 19 20 21
6 6 5 5 6 6 6 6 6 6 6 7 7 7 7 7 7 7 6 6 5 5 5 6 6 6 5 6 7 7 7 6 6 6 6 7 7 7 6 6 6 6 5 4 3 3 3 1 2 3 4 5 5 5 4 5 6 8 8 8 6 6 6 9 12 14 15 16 15 15 14 14 14 14 15 15 16 16 17 17 17 17 17 17 18 19
6 6 6 5 5 5 5 5 6 7 8 8 8 7 7 7 7 7 6 6 6 6 6 6 6 6 5 7 8 8 7 6 6 5 4 5 5 5 5 6 6 6 5 4 3 3 3 3 1 2 4 5 5 5 5 7 8 9 9 9 7 5 5 7 10 13 15 16 16 16 16 16 15 15 14 14 15 15 15 16 16 16 16 16 16 17
6 6 6 6 6 6 6 7 8 9 10 9 8 6 6 6 7 7 7 7 6 6 6 6 6 7 7 8 8 8 7 5 4 4 4 4 5 5 5 5 6 6 5 4 4 4 4 3 2 1 3 5 6 6 6 8 9 10 10 9 8 5 4 6 9 12 14 15 16 16 17 17 16 16 15 14 14 14 15 15 15 15 15 15 16 16
6 7 7 7 7 7 7 8 8 8 8 8 7 6 5 6 7 7 7 7 7 7 7 7 7 7 8 8 8 8 6 4 3 3 3 4 5 5 5 6 6 5 4 3 4 4 5 4 3 2 2 5 6 6 7 8 10 10 11 10 8 6 5 6 8 11 13 14 15 16 17 17 17 16 16 15 15 15 15 15 15 15 16 16 16 16
6 7 7 6 6 6 7 7 7 7 6 6 6 6 6 7 7 7 7 7 7 6 6 6 7 7 7 8 7 6 3 2 2 2 3 3 4 5 5 6 7 7 5 5 5 5 5 4 3 2 1 5 6 7 7 8 10 10 10 10 9 7 6 6 7 9 12 13 14 15 16 16 17 17 16 16 16 15 15 16 16 16 16 16 16 16
6 7 7 7 8 9 9 8 8 8 8 7 6 6 7 7 7 7 7 6 6 6 6 6 7 7 6 7 5 3 2 3 4 4 3 3 4 5 5 6 7 7 6 6 6 5 5 4 3 2 1 3 5 6 7 8 9 10 10 9 8 8 7 6 7 9 11 12 13 14 14 16 16 16 16 16 16 16 16 16 16 16 16 16 16 15
10 10 10 11 13 14 15 14 14 13 12 10 8 6 6 6 6 6 6 5 5 5 6 6 6 6 6 5 4 4 3 4 4 4 4 3 4 4 5 5 6 7 7 6 6 5 5 4 3 2 1 1 3 5 6 8 9 9 9 9 8 7 6 6 7 8 10 11 12 13 13 14 15 15 16 16 16 17 17 17 17 17 17 17 16 15
15 15 16 16 16 16 16 15 15 15 15 13 11 9 7 5 5 5 5 4 5 5 5 5 6 6 5 5 4 4 4 3 4 4 4 4 4 4 4 5 6 7 7 6 6 5 4 3 3 3 1 0 2 3 5 7 8 9 9 9 7 6 5 5 5 7 9 10 11 12 12 13 14 15 15 15 16 16 17 17 17 17 17 15 14 13
15 16 16 15 15 15 15 14 14 14 14 14 14 12 8 5 4 4 5 4 5 5 5 5 5 5 4 4 4 4 4 3 3 4 4 4 3 3 4 5 6 6 6 5 5 5 4 3 2 3 2 0 1 3 4 5 7 8 9 8 7 6 4 4 4 5 7 9 10 11 11 12 13 13 14 15 15 16 16 17 17 16 15 12 10 9
13 14 14 14 14 14 14 13 13 13 14 14 13 11 8 5 4 4 4 5 5 5 5 5 5 4 4 5 5 5 3 1 3 4 5 4 3 3 4 5 5 5 5 4 4 3 2 1 2 2 2 1 1 2 3 3 4 5 6 7 7 6 5 4 4 4 6 7 9 10 10 11 12 12 13 14 14 15 15 16 15 14 11 9 8 8
10 11 11 11 11 11 11 10 10 11 12 13 12 10 7 4 4 4 4 5 5 5 5 5 5 5 5 5 5 3 1 2 4 5 5 4 4 4 5 5 5 5 4 4 3 2 1 2 2 2 3 1 1 2 2 2 2 3 4 5 5 5 5 5 4 4 5 6 7 8 9 10 11 11 12 13 14 15 15 15 13 11 8 7 7 7
8 8 7 8 8 7 7 7 7 8 9 10 10 8 6 4 4 4 4 4 4 5 5 5 5 5 5 4 3 2 2 2 4 6 5 4 3 4 5 5 5 5 4 4 3 2 2 2 2 3 3 2 0 2 3 3 2 3 3 3 3 4 4 4 4 4 4 5 6 7 9 9 10 11 11 12 13 14 15 15 12 9 7 7 7 7
7 7 6 6 6 5 5 5 5 6 6 6 6 6 5 5 4 4 4 4 4 4 5 5 5 5 5 4 3 3 2 3 5 6 6 4 3 3 4 4 4 5 4 3 3 3 2 2 2 2 3 2 1 1 2 3 3 3 3 3 3 3 4 4 4 4 3 4 5 6 8 9 9 10 10 11 12 14 15 15 12 9 7 7 7 7
7 6 5 5 5 5 5 5 5 5 5 5 5 5 5 5 5 5 4 4 4 4 5 5 5 5 5 5 4 4 4 4 5 7 7 4 3 3 3 4 4 4 4 3 3 3 2 2 2 2 2 2 2 1 1 3 3 3 3 3 3 2 2 3 3 3 3 3 4 5 6 7 8 9 9 10 12 13 14 13 11 9 7 7 7 8
7 6 6 5 5 5 5 5 5 5 5 5 5 5 4 4 4 4 4 4 4 4 5 5 5 5 5 4 4 4 4 4 5 7 7 4 3 3 3 4 4 4 5 4 3 3 2 3 3 2 2 2 2 2 1 2 3 4 3 3 3 2 2 2 2 2 2 2 3 3 4 5 6 7 8 9 10 11 11 11 9 8 7 7 7 8
6 6 6 5 5 5 5 5 5 5 5 5 5 5 4 4 4 4 4 4 4 4 4 5 5 5 5 4 4 4 5 5 6 7 7 5 3 3 3 3 4 4 4 4 4 3 2 3 4 4 3 2 2 2 2 1 3 4 4 3 3 2 2 2 2 2 2 2 2 3 3 4 4 5 6 7 8 9 9 8 8 8 8 8 8 8
6 6 5 5 5 5 5 5 5 5 5 5 5 4 5 4 4 4 4 4 4 5 5 5 5 5 5 5 5 6 6 6 6 7 7 5 4 3 3 3 3 4 4 4 4 3 3 3 5 5 4 2 1 1 2 1 2 4 4 3 3 2 2 2 2 2 2 2 2 3 3 3 4 4 4 7 8 9 9 9 9 9 9 9 9 9
6 6 6 5 5 5 5 5 5 5 5 5 5 5 5 4 4 4 4 4 4 5 6 6 6 6 7 6 6 6 7 7 7 7 7 6 4 4 3 3 3 3 3 4 4 4 3 3 4 5 3 2 1 1 1 1 2 4 4 3 3 2 2 2 3 3 2 2 2 3 3 3 3 4 4 6 8 9 9 10 10 11 11 11 10 10
6 6 6 6 5 5 6 6 6 6 5 5 5 5 5 5 5 5 4 4 5 5 6 6 6 7 8 9 8 8 8 8 9 9 8 7 5 4 4 3 3 3 3 3 4 4 3 3 3 4 3 3 2 2 0 1 3 4 4 4 3 2 2 3 3 3 3 3 3 3 3 3 4 4 4 5 5 6 7 7 8 10 11 11 11 12
6 6 6 6 6 6 6 6 6 6 6 6 6 6 6 6 5 5 5 5 5 5 6 6 6 6 7 8 9 10 10 10 10 10 9 7 6 5 5 4 4 4 3 3 3 4 3 3 3 3 3 4 4 3 1 1 3 4 4 4 3 2 2 3 3 3 3 3 4 3 3 4 4 4 3 4 4 5 6 6 6 7 8 8 9 12
7 7 7 7 7 7 7 7 7 7 7 7 7 7 6 5 5 5 4 5 5 5 6 6 6 6 6 7 8 8 9 8 8 8 7 6 6 5 5 5 4 4 3 3 3 3 3 3 3 3 3 4 4 4 2 1 3 5 5 4 3 2 2 2 3 3 4 4 4 4 3 4 4 4 4 4 4 5 5 5 5 6 6 6 7 8
7 7 7 7 7 7 7 7 7 7 7 7 6 6 6 5 5 5 5 5 5 5 5 5 5 5 6 5 5 6 6 6 7 7 5 6 6 6 5 5 4 4 3 3 3 4 4 4 5 4 4 5 5 5 4 2 3 5 6 5 4 3 3 3 4 4 4 4 4 4 4 4 5 5 4 4 4 4 5 5 6 6 5 5 6 7
8 7 7 7 7 7 7 7 8 8 8 7 6 6 6 6 6 5 5 5 5 5 5 5 5 5 5 4 3 3 3 3 4 5 5 6 7 6 6 5 4 3 3 3 3 4 5 5 6 5 5 5 5 5 4 2 1 3 4 5 5 5 5 4 4 4 4 5 5 5 5 5 5 5 5 5 5 5 5 5 6 6 5 5 5 6
7 7 6 6 7 7 7 8 8 7 7 6 6 6 6 6 6 6 6 5 5 6 5 5 5 5 5 4 4 4 3 2 3 4 4 5 6 7 6 4 3 3 2 2 3 4 5 6 5 5 5 5 5 5 3 2 1 3 5 6 7 6 4 3 3 3 4 5 5 5 5 5 6 6 6 6 5 5 5 5 5 5 5 5 6 6
7 6 6 6 6 7 7 7 7 7 7 7 7 6 6 7 7 7 6 5 5 6 6 5 5 5 4 4 5 5 4 4 3 4 4 6 7 7 4 2 2 2 2 2 3 3 4 4 5 5 5 5 5 4 2 2 2 3 3 4 5 6 5 4 4 4 4 4 4 5 5 6 6 7 7 6 6 5 5 5 5 5 4 5 6 6
7 7 7 6 7 7 7 7 7 7 7 7 7 7 7 7 7 7 6 6 6 6 5 5 5 4 4 4 4 4 4 4 4 4 4 6 8 9 6 3 1 2 3 3 2 2 3 3 4 5 5 4 3 2 3 3 3 3 3 3 5 6 6 5 5 5 5 5 5 5 5 5 6 7 8 7 6 6 6 6 6 5 5 5 5 6
7 7 7 7 7 7 8 8 8 7 7 7 7 7 7 7 7 7 7 6 6 6 6 5 5 4 4 4 4 4 5 5 5 4 4 5 6 7 7 5 3 2 1 1 2 2 2 2 3 4 4 2 3 5 6 5 4 3 3 4 5 6 6 5 5 5 6 6 6 5 5 6 6 7 7 7 6 6 6 6 6 6 5 5 5 6
8 8 8 7 7 7 7 8 8 7 7 8 7 7 7 7 7 7 7 7 6 6 6 5 5 5 5 4 4 4 5 5 5 5 5 5 6 6 6 5 4 3 2 1 1 1 2 3 4 5 4 4 5 6 6 6 6 5 3 3 4 6 6 5 4 4 5 5 6 6 6 6 7 7 8 7 6 6 6 6 6 6 5 4 5 5
8 8 8 8 8 8 8 8 8 8 8 8 8 7 7 8 8 8 7 7 6 6 6 6 5 5 5 5 5 5 5 5 5 5 5 5 5 5 6 5 4 3 1 1 0 2 4 6 7 8 7 6 5 5 5 6 6 5 4 3 4 5 6 5 4 4 4 4 5 6 6 6 7 8 8 7 6 5 5 5 6 6 5 4 4 5
8 8 8 8 8 8 8 8 8 8 8 8 8 7 7 8 9 9 7 7 6 6 6 6 6 6 6 5 5 6 6 5 5 5 5 5 5 5 5 5 4 3 2 2 1 1 3 6 9 10 10 9 7 6 5 5 5 5 4 4 4 5 5 5 4 3 3 3 4 4 5 5 6 7 8 9 8 6 5 5 5 5 5 4 4 4
8 7 8 8 8 8 8 8 8 8 8 8 8 8 7 7 8 8 7 7 6 6 6 6 6 6 6 6 6 6 6 6 5 5 5 5 5 5 5 5 5 4 3 2 2 1 0 3 6 10 13 13 11 8 6 5 4 4 4 4 4 4 5 5 4 3 3 3 4 4 5 5 5 5 7 9 9 8 6 5 5 5 4 4 4 4
7 7 7 8 8 8 7 7 8 8 8 8 8 8 7 7 7 7 7 7 7 7 6 6 6 6 6 6 6 6 6 6 6 6 6 5 5 5 5 5 5 5 3 2 1 1 1 1 3 6 10 15 16 13 7 6 4 4 4 4 4 3 3 4 4 4 4 4 4 4 5 5 5 5 6 8 8 8 7 5 5 4 4 4 4 5
Wind_Direction
302 303 305 313 317 318 317 320 320 318 317 314 312 312 313 317 316 313 310 306 301 297 294 294 297 301 305 307 308 309 310 310 310 308 304 301 298 298 299 300 301 301 301 303 308 314 317 310 300 294 290 290 290 292 293 294 291 281 259 229 212 205 202 203 203 204 205 206 205 205 205 204 203 201 197 191 186 183 183 183 183 184 186 191 195 196
303 303 305 315 319 319 315 318 318 317 315 312 311 312 317 318 316 312 308 303 300 297 295 297 300 304 306 306 307 307 308 309 308 307 304 300 297 296 296 297 297 296 296 297 303 310 314 307 297 290 287 287 288 289 289 290 289 283 268 238 217 207 204 203 204 204 204 204 204 204 204 205 205 203 200 194 189 186 184 184 184 185 187 193 196 197
306 305 308 316 320 319 314 317 317 315 312 309 309 312 317 317 314 310 306 303 301 299 298 300 303 305 307 307 307 307 307 307 307 306 304 300 297 296 294 294 292 291 289 289 293 301 309 302 294 288 285 285 286 286 285 286 285 281 269 242 220 208 203 203 203 203 203 203 203 203 203 205 206 206 204 200 195 190 187 186 186 187 190 196 199 200
306 306 311 316 318 317 314 315 315 314 309 306 308 312 317 315 312 308 304 302 302 301 300 301 303 305 307 307 307 306 306 305 305 304 302 300 297 295 293 291 288 285 281 279 282 289 298 296 291 286 284 284 285 285 283 282 281 277 268 244 222 207 201 200 201 202 203 203 203 204 204 205 206 207 206 204 200 195 191 190 189 189 193 198 202 203
306 307 312 315 315 314 314 314 313 311 307 306 310 314 317 313 309 305 303 303 302 301 300 301 304 306 306 306 305 304 304 303 302 301 299 297 295 292 290 288 284 280 274 271 271 277 286 288 286 283 282 283 284 284 281 279 277 273 264 242 220 205 196 195 197 199 202 203 204 204 205 205 206 207 207 206 203 200 197 195 193 193 196 200 203 204
305 305 309 311 312 313 316 315 313 311 309 310 312 315 314 310 307 305 305 305 304 302 300 300 303 305 305 302 302 303 303 302 301 298 296 294 292 290 288 285 281 275 268 265 263 267 275 280 281 280 279 281 283 284 281 277 274 268 257 234 213 198 189 187 190 194 199 201 203 204 205 205 206 206 207 206 204 203 201 200 198 197 199 201 203 203
301 301 305 308 310 312 313 312 312 312 314 314 315 314 312 309 306 305 305 305 303 300 299 301 303 305 304 304 304 304 304 302 300 298 295 292 291 289 287 283 278 271 264 260 257 260 267 274 276 276 277 279 282 283 281 277 272 264 248 225 205 192 182 179 181 186 193 197 199 201 203 204 205 206 206 204 203 202 202 202 201 201 202 202 203 202
298 300 305 309 311 312 311 310 312 314 316 316 315 314 312 310 309 308 307 303 300 299 302 306 308 308 306 307 307 307 306 303 300 297 294 292 291 290 287 282 275 266 259 255 252 253 260 269 272 273 274 278 280 281 280 275 269 259 239 214 197 186 177 173 174 179 187 191 194 196 198 199 201 203 205 203 201 200 200 201 201 202 203 202 202 202
298 302 307 312 314 314 311 310 312 315 317 315 313 312 313 315 315 315 313 308 305 305 310 313 313 311 309 310 309 308 307 303 300 297 294 293 292 291 289 283 274 262 251 247 245 247 253 263 268 270 273 277 279 279 277 272 265 252 225 202 188 180 172 168 169 174 182 186 188 189 190 193 195 197 199 199 198 197 196 196 197 198 199 199 200 200
299 303 309 313 315 314 311 310 313 316 317 312 309 308 312 319 321 321 318 314 313 314 317 317 316 314 312 312 311 310 309 307 303 300 297 300 300 299 296 287 273 255 239 237 236 239 247 258 263 267 271 276 278 278 276 268 259 239 207 188 179 172 166 162 163 168 176 181 183 184 184 186 187 190 192 193 193 193 192 191 192 194 195 196 197 197
302 306 311 313 314 313 309 309 313 317 318 313 311 311 317 324 325 321 318 316 316 318 321 320 317 315 313 312 312 314 316 315 311 307 304 306 307 305 301 290 274 249 230 228 227 230 237 249 257 263 269 278 281 281 277 265 250 222 189 176 170 165 159 155 155 160 169 176 179 180 181 181 182 184 186 187 188 189 189 190 191 193 195 196 196 196
305 309 313 314 314 313 311 311 314 319 321 320 319 322 326 329 323 316 312 313 315 319 323 320 316 311 308 306 309 315 325 322 317 313 310 310 311 311 307 299 284 254 224 217 214 217 225 237 247 256 264 278 286 288 283 268 242 201 173 167 163 159 152 147 147 152 162 171 175 177 178 179 179 180 181 184 185 186 187 189 191 193 196 197 198 199
305 309 312 312 313 313 314 316 320 324 326 326 326 326 327 326 320 312 306 307 312 318 322 318 314 308 303 298 306 322 331 324 318 313 310 309 312 314 312 307 303 290 233 208 196 196 204 219 234 247 256 274 286 290 289 269 233 181 159 157 157 154 148 142 141 145 156 166 172 175 176 177 177 178 179 181 183 184 185 186 188 190 193 196 198 199
307 310 311 310 311 313 316 320 322 325 326 325 324 323 323 322 318 314 308 307 312 317 320 314 311 309 303 298 320 346 340 330 323 317 311 307 309 313 311 304 304 304 294 233 192 179 176 191 209 232 246 264 279 286 285 268 224 162 142 145 148 148 145 140 140 144 154 163 170 174 176 176 176 176 176 177 179 180 182 183 185 187 189 192 195 198
309 311 310 310 311 313 317 320 322 322 322 320 319 319 320 321 319 316 312 311 315 319 320 315 313 310 303 308 349 9 353 340 331 323 315 308 307 309 308 303 303 305 305 278 216 177 164 175 192 217 240 253 262 269 267 258 201 128 123 127 136 141 143 143 145 149 156 163 170 174 177 177 177 176 175 175 175 176 178 180 182 184 186 190 193 196
309 310 308 308 309 312 315 319 320 319 317 317 317 320 323 323 319 314 309 311 315 321 324 323 320 317 309 319 355 13 3 347 334 324 315 307 303 304 308 306 307 308 309 299 268 197 167 171 184 209 242 246 246 242 237 235 156 106 108 115 127 136 142 147 152 157 163 167 170 173 175 176 176 176 175 174 174 174 174 177 179 182 185 189 192 195
307 307 306 306 308 310 314 316 316 315 314 314 316 320 322 320 314 308 305 311 317 324 327 326 324 322 318 321 340 0 4 348 333 321 312 303 300 301 307 307 307 307 307 302 288 243 176 166 173 198 235 229 217 204 198 151 108 97 98 107 120 132 141 149 156 163 168 170 170 170 171 172 173 173 172 172 172 172 173 175 177 180 184 188 191 195
305 305 306 305 306 309 314 314 314 313 311 314 316 318 319 314 308 305 305 314 322 326 326 323 320 317 314 315 326 342 352 341 329 317 309 301 298 300 307 305 302 299 298 295 286 260 191 166 166 182 206 184 177 173 163 127 105 95 93 97 109 126 140 149 156 163 168 170 170 168 166 166 166 167 167 167 168 169 171 173 176 179 183 186 190 194
305 305 304 304 306 308 311 311 312 313 314 317 318 317 315 312 308 307 309 318 323 324 321 317 313 309 306 306 313 322 334 330 322 313 306 299 298 301 307 304 299 294 293 294 295 287 248 192 170 166 168 165 163 157 141 119 103 93 87 90 99 117 137 146 152 157 162 165 166 166 164 163 162 162 161 161 162 163 165 168 172 176 179 183 187 191
304 302 301 304 306 307 305 305 308 311 313 314 313 312 311 310 308 308 311 318 320 320 316 311 308 306 305 304 305 309 317 318 314 307 299 294 294 297 304 302 299 297 295 299 310 318 305 272 192 160 150 153 152 144 127 110 99 91 84 83 90 107 133 145 149 151 153 155 158 161 164 165 164 163 161 159 158 158 160 162 165 169 173 178 182 186
299 297 298 303 306 304 302 303 305 306 306 307 306 306 306 308 308 308 312 316 317 316 312 307 305 305 304 300 298 298 303 306 305 301 296 293 293 295 302 301 300 300 299 304 315 324 321 312 284 179 152 152 145 131 114 102 95 90 84 81 83 97 130 146 149 148 146 147 150 156 162 165 167 167 165 162 160 159 157 157 158 161 164 169 174 179
294 294 298 300 299 296 295 297 298 298 298 299 300 302 307 308 307 307 310 314 314 312 309 304 301 299 297 291 287 286 284 283 285 289 294 294 297 301 309 307 303 300 298 309 322 329 327 324 315 266 165 154 144 128 110 99 93 89 84 80 81 91 121 144 147 145 142 143 146 151 157 162 165 167 168 167 165 163 160 157 156 156 157 161 165 170
291 294 297 297 294 291 290 290 289 290 292 295 298 300 304 302 301 302 306 309 308 305 301 298 296 293 288 282 279 275 269 263 267 278 288 294 302 310 320 313 307 303 304 320 328 328 323 322 316 295 173 154 146 133 115 101 94 89 85 81 79 83 103 129 139 140 139 139 142 146 151 156 160 164 167 168 168 167 164 161 158 156 156 158 160 163
294 295 296 294 290 285 282 282 284 288 294 298 299 298 295 290 290 294 301 302 300 297 296 298 299 296 290 284 280 277 278 307 323 318 306 301 306 313 318 315 313 313 319 327 327 322 317 318 313 300 198 155 148 138 121 106 97 92 87 82 78 76 83 106 123 131 133 134 137 141 145 149 153 158 163 167 168 168 166 163 161 160 159 159 158 159
301 299 297 295 292 289 288 289 294 300 305 305 301 295 289 288 291 295 299 296 295 298 304 307 306 303 300 297 297 308 8 25 17 2 338 315 306 307 310 316 321 324 324 323 318 314 312 317 317 311 257 154 144 135 123 110 102 95 89 82 74 69 69 85 105 118 124 127 131 135 138 142 147 153 159 163 166 166 166 164 163 163 163 162 160 158
313 311 308 306 304 304 305 307 310 313 313 309 303 297 295 300 303 304 299 298 304 311 315 311 308 305 304 306 312 326 356 21 23 14 349 320 305 303 307 321 328 326 319 314 310 307 308 315 319 318 296 151 135 127 119 112 105 100 94 86 76 65 58 69 90 107 117 122 126 130 134 138 143 149 155 160 163 165 165 165 164 165 165 164 162 159
321 318 316 315 315 316 318 320 320 318 316 311 310 311 317 321 318 310 303 311 319 322 315 309 306 306 307 310 314 318 325 354 12 10 346 319 304 303 315 331 332 327 317 308 301 298 301 309 316 315 305 128 119 116 115 112 108 105 101 96 87 74 59 62 81 102 115 120 125 129 134 138 143 148 153 158 161 163 164 164 164 164 164 164 162 161
323 322 322 322 322 323 324 325 323 321 317 315 318 324 335 334 323 313 313 323 324 318 306 304 306 309 312 312 309 307 304 345 10 4 341 319 306 308 323 332 332 328 319 306 295 289 289 304 316 319 317 31 96 104 111 109 108 107 105 103 98 89 71 62 73 94 111 119 125 130 135 140 144 148 152 156 158 161 162 162 162 162 162 162 162 162
322 321 321 322 323 324 325 325 322 319 317 319 326 334 345 339 325 317 319 322 317 308 302 303 307 311 312 308 304 297 287 17 23 5 344 327 317 318 328 329 332 331 324 312 300 294 290 331 343 337 329 314 113 110 112 105 102 101 102 102 100 93 79 63 62 79 102 116 125 131 136 141 144 147 150 153 156 158 159 159 159 160 160 160 159 160
319 319 319 320 322 322 322 318 315 315 317 322 328 335 341 334 322 315 315 313 308 303 303 306 310 312 314 310 305 299 296 45 32 13 354 339 330 328 330 329 333 336 334 324 317 315 340 12 5 349 333 281 191 137 122 113 100 92 92 93 91 86 78 69 64 69 87 109 122 130 136 139 142 145 147 151 153 155 156 155 155 156 158 156 154 155
318 317 316 318 319 319 316 313 312 313 317 322 327 330 331 324 314 308 305 303 301 301 302 305 307 311 314 314 311 309 324 11 14 10 360 344 331 326 330 328 331 334 336 332 325 324 338 3 1 349 331 315 226 139 127 121 111 97 90 84 78 75 74 69 65 66 74 97 115 126 131 134 138 141 145 149 152 153 154 153 153 153 156 153 151 151
318 318 318 319 320 319 316 316 316 317 318 321 323 322 319 314 307 302 299 298 298 298 299 300 302 304 306 305 301 301 307 328 347 355 355 341 326 321 328 326 325 326 327 325 318 313 318 337 347 342 329 330 330 136 129 123 116 107 97 88 77 68 68 69 66 62 62 81 99 112 120 126 131 136 142 147 151 153 154 153 153 153 156 152 149 148
319 320 321 323 323 322 320 320 321 320 320 319 316 314 311 307 304 300 297 296 296 296 296 297 298 299 300 297 293 290 290 303 327 342 347 339 325 316 324 324 323 321 321 320 315 308 303 315 325 329 323 322 319 325 102 115 116 114 107 99 91 80 72 73 69 65 61 70 82 92 102 114 122 131 140 146 151 153 154 152 152 152 156 150 146 144
322 323 325 327 326 324 322 321 321 319 317 314 311 309 307 305 302 299 297 295 293 292 293 293 295 296 298 295 292 287 287 296 316 331 341 336 325 316 318 321 323 324 325 327 326 320 305 313 317 316 309 311 317 332 10 92 111 116 109 105 104 103 97 89 81 75 72 73 77 82 85 98 108 121 134 143 148 151 150 147 144 142 143 144 144 143
325 327 330 330 328 326 323 321 320 317 314 311 309 307 305 303 301 298 295 293 290 288 285 284 285 286 289 289 289 288 288 295 309 320 328 327 322 315 313 317 324 328 328 330 332 331 323 320 313 307 298 303 319 337 352 56 99 110 105 103 105 113 120 113 102 92 86 84 85 86 85 88 97 111 129 139 143 142 138 132 127 126 129 134 139 141
329 331 333 333 331 328 324 322 319 317 315 312 310 308 306 304 302 301 297 293 288 285 282 278 274 272 271 273 277 280 285 290 299 306 312 314 314 311 305 310 321 327 326 327 330 332 329 319 307 299 290 300 332 356 352 36 92 104 105 105 108 115 124 119 112 105 99 96 94 94 93 88 90 100 120 129 129 126 121 114 112 114 119 126 130 134
333 335 336 335 333 330 326 324 321 319 318 316 313 311 309 308 307 306 302 293 286 282 280 276 271 266 262 261 263 269 276 282 288 291 294 296 296 293 288 295 306 312 315 316 321 326 327 317 307 301 296 318 348 2 14 93 108 111 114 116 121 125 129 124 117 111 105 101 98 97 96 88 85 89 104 117 117 114 109 106 106 107 110 113 116 121
337 338 338 338 336 333 329 326 324 321 320 317 314 312 312 312 313 311 307 296 286 279 276 275 272 267 263 261 260 261 265 270 274 276 278 277 275 273 273 279 286 290 290 297 305 312 318 315 311 312 320 336 340 336 279 141 129 124 120 120 123 129 136 131 121 112 105 98 95 94 94 89 86 89 98 109 109 106 103 102 102 102 102 101 102 103
340 340 340 340 339 336 332 328 325 322 320 317 315 314 315 318 320 319 313 305 297 290 285 284 281 276 269 264 261 260 261 263 265 267 268 265 261 259 262 268 273 275 274 278 284 291 296 296 303 313 324 331 334 332 317 157 140 130 121 116 114 116 126 124 117 111 105 102 100 98 98 97 95 95 98 105 107 106 107 107 107 106 105 101 96 95
342 341 341 341 340 337 333 329 325 322 319 318 317 318 321 326 329 327 321 317 313 308 304 298 292 286 280 272 266 262 260 260 262 263 264 259 253 249 250 257 263 267 268 269 272 274 275 274 277 286 298 305 313 317 318 198 153 143 131 125 122 120 116 111 109 107 105 106 107 109 109 106 102 98 93 95 100 106 111 114 114 112 112 113 110 104
343 343 342 341 339 336 332 328 325 323 323 322 324 327 332 336 336 334 330 329 326 322 317 310 304 297 290 278 267 259 254 256 258 260 262 258 254 249 246 248 251 255 259 263 265 264 263 267 269 272 277 287 293 295 293 260 167 147 137 132 129 124 109 99 99 101 102 104 107 110 112 107 100 93 85 79 80 88 102 112 115 115 112 115 119 122
344 343 342 340 339 336 333 330 329 328 328 328 330 334 339 340 339 337 335 336 334 332 328 322 317 312 308 302 292 278 263 260 262 265 270 269 266 260 252 245 240 239 243 255 261 263 261 260 262 266 272 281 286 288 289 284 195 134 126 125 121 113 95 86 90 99 104 107 110 111 110 103 96 87 78 70 64 63 71 91 101 109 113 115 119 122
343 342 341 340 338 336 333 334 334 334 333 334 336 339 342 342 340 338 337 338 337 335 332 326 321 318 318 326 331 332 323 300 289 288 292 291 288 281 268 248 230 219 223 247 259 262 259 260 263 267 271 273 274 278 286 305 26 104 117 126 126 122 113 106 102 102 102 104 104 101 97 92 87 81 73 64 55 49 49 60 71 84 100 109 113 115
341 340 340 341 340 339 340 341 340 338 337 337 339 341 342 342 340 339 339 339 338 337 335 328 323 321 326 337 339 338 332 325 316 312 316 322 324 322 313 278 218 205 212 235 259 275 282 284 286 285 278 269 268 273 300 341 47 90 111 121 121 121 121 120 116 107 98 92 88 87 88 91 88 83 73 63 53 44 40 45 51 59 69 88 101 109
341 341 343 344 345 346 347 345 343 340 339 340 341 343 343 342 341 341 342 341 340 339 336 331 327 329 341 346 344 339 336 335 334 332 329 335 339 341 344 343 244 207 213 236 265 291 306 306 302 294 284 278 289 339 17 21 35 54 72 82 89 93 97 103 108 110 106 99 94 92 96 99 96 88 78 65 54 44 38 41 46 51 57 74 91 104
344 345 346 347 348 349 349 347 344 342 342 343 344 344 343 342 341 341 344 343 342 340 339 336 337 341 348 348 346 343 341 340 339 339 338 340 343 345 347 348 347 337 301 299 306 315 320 321 315 310 307 332 18 31 25 19 20 32 51 76 89 93 92 92 99 108 114 112 111 110 111 105 98 90 85 75 62 48 38 38 40 44 49 67 87 101
347 347 348 349 349 349 349 348 347 345 345 346 346 345 344 343 342 343 345 346 344 343 342 343 344 347 349 350 349 346 343 341 340 340 340 343 344 345 343 342 346 354 5 350 356 17 32 22 8 359 359 19 32 32 23 17 16 19 31 65 89 96 94 87 87 94 107 114 120 124 123 110 102 97 96 88 75 58 43 39 37 37 39 56 80 98
348 348 349 350 350 350 349 349 348 347 347 346 346 345 345 345 346 346 346 347 346 346 348 348 349 348 350 351 351 349 346 343 340 340 342 343 343 342 339 332 325 313 282 253 81 61 57 49 41 34 28 29 30 29 21 17 15 15 12 34 70 88 91 85 81 82 93 109 122 129 127 120 116 115 110 100 88 70 53 44 39 35 32 43 70 95
348 349 350 351 350 350 349 348 347 347 347 347 346 345 345 346 347 348 346 346 347 349 351 351 350 349 350 351 350 349 348 345 343 343 345 344 342 339 337 331 321 305 271 243 224 120 70 63 55 48 40 35 31 26 21 17 17 18 20 33 59 80 91 88 83 80 83 99 111 116 116 117 121 123 118 109 101 89 72 57 46 38 31 37 58 85
348 349 351 351 351 350 348 347 348 348 348 347 347 346 345 346 348 348 346 347 348 351 352 352 351 351 351 350 349 349 350 348 346 345 346 344 341 338 337 334 327 317 290 256 237 232 53 65 59 51 43 38 32 26 19 14 14 21 31 35 47 67 85 87 84 80 78 87 96 101 104 108 113 116 114 112 108 102 89 73 57 44 34 39 56 78
347 349 351 352 352 350 349 348 348 349 349 349 348 347 347 348 348 348 348 348 350 352 353 352 353 353 353 351 350 350 350 348 347 345 344 342 339 337 337 337 334 327 315 299 284 292 347 42 47 43 38 32 29 26 22 12 11 21 37 34 36 49 70 80 81 80 80 86 93 99 104 108 111 114 116 116 113 108 99 87 72 57 42 49 67 84